Location: Ku?niki
(51.4449°N, 17.8974°E)
Time: 02:07:32
(UTC+00:00)

Lacrosse 5 rocket - Pass Details

Date: 18 September 2020
Orbit: 461 x 635 km, 57.0° (Epoch: 22 October)

Event Time Altitude Azimuth Distance (km) Brightness Sun altitude
Rises 21:27:42 0° 298° (WNW) 2,857 5.6 -34.8°
Reaches altitude 10° 21:29:58 10° 301° (WNW) 1,973 4.7 -35.0°
Enters shadow 21:30:47 15° 302° (WNW) 1,663 4.2 -35.0°
